星链-38121(STARLINK-38121)

导读

STARLINK-38121(NORAD编号100156)是美国SpaceX公司研发的星链低轨互联网卫星,属于第二代星链组网节点,2025年由猎鹰9号火箭发射入轨,国际编号为2025-158M。该卫星设计寿命约5年,运行在高度约550千米、倾角53度的近地轨道,截至2026年8月仍处于在轨运行状态。它依托星间激光链路与地面站协同,可提供超1Gbps的高速网络接入,为全球通信薄弱区域覆盖网络,同时其低轨运行会对天文光学、射电观测产生一定潜在干扰。

基本信息
目录编号:
100156
目录名称:
STARLINK-38121
国际标识:
2026-171J
轨道中心:
EARTH
卫星名称:
星链-38121
卫星全名:
星链-38121(STARLINK-38121)
卫星状态:
在轨 (已飞行47 天)
发射日期:
2026-07-25 UTC
国别 :
美国 (US)
星等 :
--
轨道信息
数据来源 国际轨道数据 AOE轨道数据
星历时间 2026-09-10T07:34:02+0800
10小时前
查看轨道信息
2026-09-03T22:00:00+0800
6天前
查看轨道信息
半长轴 6823.663km 6797.188km
偏心率 0.0001311 0.0002098
轨道倾角 97.284° 97.287°
近地点辐角 61.031° 95.089°
升交点赤经 285.567° 279.122°
平近点角 299.107° 277.018°
近地点 444.631km 417.624km
远地点 446.421km 420.478km
周期 93.495分钟 92.951分钟
每日圈数 15.401975 15.492051
详细信息
固有亮度:
5
最大亮度:
2.5
卫星平台:
Starlink V1.0
覆盖范围:
全球
运营商:
太空探索技术公司
运营商所在国:
美国
制造商(研发单位):
太空探索技术公司
制造商所在国:
美国
使用方式:
暂无
卫星简介
Starlink 计划是 SpaceX 推出的全球卫星互联网项目,通过发射低轨道卫星,为全球尤其是偏远地区提供高速、低延迟的互联网服务。自 2019 年起,Starlink 已部署数千颗卫星,旨在缩小全球数字鸿沟,推动互联网普及。该项目还为军事、航空等行业提供通信支持,带来广泛经济效益。
2D轨道图
3D轨道图
轨道高度分析图
轨道倾角分析图
轨道综合分析图
查看轨道综合分析图
与全量物体交会距离演化趋势
与全量物体交会风险概率演化趋势